Regional Weather Roundup
Issued by NWS Albany, NY

Home | Current Version | Previous Version | Text Only | Print | Product List | Glossary On
Versions: 1 2 3 4 5 6 7 8 9 10 11 12 13 14 15 16 17 18 19 20 21 22 23 24 25 26 27 28 29 30 31 32 33 34 35 36 37 38 39 40 41 42 43 44 45 46 47 48 49
000
ASUS41 KALY 272210
RWRALY

NEW YORK STATE HOURLY WEATHER ROUNDUP
NATIONAL WEATHER SERVICE ALBANY NY
500 PM EST FRI FEB 27 2015

NOTE: "FAIR" INDICATES FEW OR NO CLOUDS BELOW 12,000 FEET WITH NO
SIGNIFICANT WEATHER AND/OR NO OBSTRUCTIONS TO VISIBILITY.

NYZ032-033-038>043-046>054-057>066-NYZ062>081-272300-
EAST


CITY           SKY/WX    TMP DP  RH WIND       PRES   REMARKS
ALBANY         PTCLDY    20   0  41 W16       30.43R WCI   6
GLENS FALLS    CLEAR     21   3  45 SE12      30.39R WCI   9
POUGHKEEPSIE   CLEAR     27   2  34 N7        30.41R WCI  19
NEWBURGH       CLEAR     25   5  42 NW12      30.39R WCI  14
MONTGOMERY     CLEAR     26   0  32 W12G20    30.39R WCI  16
WHITE PLAINS   CLEAR     25   3  38 NW6       30.39R WCI  18
ISLIP          PTCLDY    27   5  39 NW10      30.41R WCI  17
NEW YORK CITY  PTCLDY    30   7  37 NW14      30.43R WCI  19
CENTRAL PARK   CLEAR     29   2  31 NW10      30.44R WCI  20
$$

NYZ005>009-017-018-044>046-055-056-272300-
CENTRAL


CITY           SKY/WX    TMP DP  RH WIND       PRES   REMARKS
FULTON         PTCLDY    14   1  56 W10       30.51R WCI   1
SYRACUSE       MOCLDY    17   1  49 W10       30.50R WCI   5
ROME           CLOUDY    14   2  58 W10       30.50R WCI   1
ELMIRA         CLEAR     19  -5  34 N10       30.45R WCI   7
BINGHAMTON     CLEAR     14  -2  49 N9        30.37R WCI   2
MONTICELLO     FAIR      18   0  45 NW14      30.36R WCI   4
$$

NYZ026>034-041>043-272300-
NORTH


CITY           SKY/WX    TMP DP  RH WIND       PRES   REMARKS
WATERTOWN      CLOUDY    15   9  76 W10       30.49R WCI   2
FORT DRUM      NOT AVBL
MASSENA        CLEAR     14  -6  40 SW10      30.45R WCI   1
SARANAC LAKE   CLEAR     13  -9  37 W9        30.27R WCI   1
PLATTSBURGH    CLEAR     15  -6  39 CALM      30.41R
$$

NYZ001>004-010>016-019>021-272300-
WEST


CITY           SKY/WX    TMP DP  RH WIND       PRES   REMARKS
NIAGARA FALLS  MOSUNNY   11   1  64 SW13G24   30.54R WCI  -4
BUFFALO        LGT SNOW   9   3  77 SW20G26   30.54R WCI -10
DUNKIRK        MOSUNNY    9   1  70 SW12G22   30.58R WCI  -6
JAMESTOWN      SUNNY      9  -6  52 W14       30.45R WCI  -8
WELLSVILLE     CLEAR     12  -7  42 N10       30.38R WCI  -1
ROCHESTER      PTCLDY    12  -1  56 W18       30.54R WCI  -6
PENN YAN       CLEAR     15  -6  39 NW12      30.47R WCI   2
$$

             KEY
       WCI = WIND CHILL INDEX
       VSB = VISIBILITY
       HX  = HEAT INDEX
$$



USA.gov is the U.S. government's official web portal to all federal, state and local government web resources and services.